Location: Caltech
(34.1382°N, 118.1253°W)
Time: 02:27:05
(UTC-07:00)

HO-68 - Visible Passes

Search period start: 19 April 2015 00:00
Search period end: 29 April 2015 00:00
Orbit: 1193 x 1204 km, 100.2° (Epoch: 18 April)

Date Brightness Start Highest point End Pass type
(mag) Time Alt. Az. Time Alt. Az. Time Alt. Az.
19 Apr ? 21:15:29 12° S 21:22:05 64° WSW 21:29:14 10° NNW visible
20 Apr ? 20:58:15 11° SSE 21:05:09 85° WSW 21:12:24 10° NNW visible
20 Apr ? 22:51:41 10° WSW 22:54:00 11° W 22:55:39 10° WNW visible
21 Apr ? 20:41:08 10° SSE 20:48:17 74° ENE 20:55:29 10° N visible
21 Apr ? 22:32:15 10° SW 22:36:45 17° W 22:40:50 10° NW visible
22 Apr ? 20:24:29 10° SE 20:31:26 56° ENE 20:38:28 10° N visible
22 Apr ? 22:13:58 10° SW 22:19:35 23° W 22:24:56 10° NW visible
23 Apr ? 20:08:01 10° SE 20:14:38 43° ENE 20:21:21 10° N visible
23 Apr ? 21:56:10 10° SSW 22:02:28 32° W 22:08:40 10° NW visible
24 Apr ? 19:51:45 10° SE 19:57:52 32° ENE 20:04:08 10° N visible
24 Apr ? 21:38:47 11° S 21:45:25 43° W 21:52:09 10° NNW visible
25 Apr ? 21:21:34 11° S 21:28:26 57° W 21:35:30 10° NNW visible
26 Apr ? 21:04:20 10° S 21:11:29 76° WSW 21:18:43 10° NNW visible
27 Apr ? 20:47:24 10° SSE 20:54:36 83° ENE 21:01:50 10° NNW visible
27 Apr ? 22:39:21 10° WSW 22:43:13 14° W 22:46:33 10° WNW visible
28 Apr ? 20:30:42 10° SSE 20:37:44 63° ENE 20:44:51 10° N visible
28 Apr ? 22:20:47 10° SW 22:26:01 20° W 22:30:56 10° NW visible
